FW4682 Weather Reports


time (UTC)temp
C
wind
direction
speed
KPH
gust
KPH
rain 1hr
cm
rain 24hr
cm
rain mn
cm
humidity
%
barometer
mb
20260906032030 21 95 0.0 0.0 0.00 0.00 0.00 53 1015.1
20260906031537 21 95 0.0 1.6 0.00 0.00 0.00 53 1015.2
20260906031030 21 95 0.0 1.6 0.00 0.00 0.00 53 1015.2
20260906030632 21 95 0.0 1.6 0.00 0.00 0.00 53 1015.2
20260906030029 21 95 0.0 1.6 0.00 0.00 0.00 53 1015.1
20260906025629 21 95 0.0 1.6 0.00 0.00 0.00 52 1014.9
20260906025131 21 95 0.0 1.6 0.00 0.00 0.00 52 1014.9
20260906024530 21 95 0.0 1.6 0.00 0.00 0.00 52 1015.0
20260906024029 21 95 0.0 0.0 0.00 0.00 0.00 52 1014.9
20260906023529 21 95 0.0 3.2 0.00 0.00 0.00 51 1014.9
20260906023028 21 95 0.0 3.2 0.00 0.00 0.00 51 1014.7
20260906022629 22 92 0.0 3.2 0.00 0.00 0.00 51 1014.7
20260906022029 22 73 0.0 3.2 0.00 0.00 0.00 51 1014.6
20260906021531 22 73 0.0 3.2 0.00 0.00 0.00 51 1014.7
20260906021028 22 98 0.0 1.6 0.00 0.00 0.00 50 1014.6
20260906020528 22 98 0.0 1.6 0.00 0.00 0.00 50 1014.5
20260906015628 22 98 0.0 0.0 0.00 0.00 0.00 49 1014.5
20260906015029 22 98 0.0 0.0 0.00 0.00 0.00 49 1014.5
20260906014530 22 98 0.0 1.6 0.00 0.00 0.00 49 1014.5
20260906014028 22 98 0.0 1.6 0.00 0.00 0.00 48 1014.4
20260906013040 22 98 0.0 1.6 0.00 0.00 0.00 48 1014.3
20260906012527 22 96 0.0 0.0 0.00 0.00 0.00 46 1014.2
20260906012028 22 96 0.0 1.6 0.00 0.00 0.00 44 1014.1
20260906011527 22 96 0.0 1.6 0.00 0.00 0.00 43 1014.1
20260906011030 22 96 0.0 1.6 0.00 0.00 0.00 43 1014.2
20260906010527 22 96 0.0 0.0 0.00 0.00 0.00 42 1014.1
20260906010029 22 96 0.0 0.0 0.00 0.00 0.00 42 1014.1
20260906005627 22 96 0.0 3.2 0.00 0.00 0.00 44 1014.0
20260906005027 22 96 0.0 3.2 0.00 0.00 0.00 44 1014.0
20260906004527 22 96 1.6 3.2 0.00 0.00 0.00 44 1014.0
20260906004025 22 96 0.0 3.2 0.00 0.00 0.00 48 1013.8
20260906003525 23 88 0.0 1.6 0.00 0.00 0.00 48 1013.6
20260906003026 23 87 0.0 1.6 0.00 0.00 0.00 48 1013.6
20260906002627 23 87 0.0 1.6 0.00 0.00 0.00 49 1013.6
20260906002024 23 87 0.0 3.2 0.00 0.00 0.00 49 1013.4
20260906001524 23 101 0.0 3.2 0.00 0.00 0.00 51 1013.4
20260906001023 23 101 0.0 3.2 0.00 0.00 0.00 51 1013.3
20260906000525 23 94 0.0 1.6 0.00 0.00 0.00 52 1013.2
20260906000024 23 94 0.0 1.6 0.00 0.00 0.00 53 1013.3
20260905235524 24 82 0.0 1.6 0.00 0.00 0.00 55 1013.2
20260905235024 24 82 0.0 1.6 0.00 0.00 0.00 57 1013.2
20260905234525 24 82 0.0 0.0 0.00 0.00 0.00 58 1013.2
20260905234023 25 82 0.0 0.0 0.00 0.00 0.00 58 1013.0
20260905233524 25 82 0.0 0.0 0.00 0.00 0.00 59 1013.0
20260905233023 25 82 0.0 0.0 0.00 0.00 0.00 59 1013.0
20260905232626 25 82 0.0 0.0 0.00 0.00 0.00 59 1013.0
20260905232026 25 82 0.0 0.0 0.00 0.00 0.00 59 1013.0
20260905231527 26 82 0.0 1.6 0.00 0.00 0.00 58 1013.0
20260905231025 26 82 0.0 1.6 0.00 0.00 0.00 57 1013.0
20260905230523 26 82 0.0 1.6 0.00 0.00 0.00 56 1012.9
20260905230024 27 82 0.0 1.6 0.00 0.00 0.00 55 1012.8
20260905225523 27 82 0.0 0.0 0.00 0.00 0.00 54 1012.8
20260905225021 28 82 0.0 1.6 0.00 0.00 0.00 54 1012.8
20260905224627 27 82 0.0 3.2 0.00 0.00 0.00 54 1012.8
20260905224022 28 82 1.6 3.2 0.00 0.00 0.00 54 1012.7
20260905223522 28 82 1.6 3.2 0.00 0.00 0.00 53 1012.7
20260905223021 28 82 0.0 3.2 0.00 0.00 0.00 51 1012.7
20260905222622 28 73 0.0 3.2 0.00 0.00 0.00 50 1012.7
20260905222120 28 73 0.0 3.2 0.00 0.00 0.00 50 1012.7
20260905221519 29 68 0.0 1.6 0.00 0.00 0.00 49 1012.8
20260905221020 29 68 0.0 1.6 0.00 0.00 0.00 49 1012.9
20260905220519 29 68 0.0 4.8 0.00 0.00 0.00 50 1013.0
20260905220019 28 68 1.6 4.8 0.00 0.00 0.00 49 1012.8
20260905215017 28 74 0.0 3.2 0.00 0.00 0.00 51 1012.9
20260905214518 29 74 0.0 3.2 0.00 0.00 0.00 51 1013.0
20260905214018 28 77 0.0 4.8 0.00 0.00 0.00 50 1012.9
20260905213520 28 76 1.6 4.8 0.00 0.00 0.00 51 1013.0
20260905212618 28 111 3.2 9.7 0.00 0.00 0.00 49 1013.2
20260905212018 28 82 3.2 9.7 0.00 0.00 0.00 49 1013.2
20260905211518 28 105 3.2 12.9 0.00 0.00 0.00 49 1013.2
20260905211017 27 59 4.8 12.9 0.00 0.00 0.00 50 1013.1
20260905210517 27 121 3.2 9.7 0.00 0.00 0.00 50 1013.2
20260905210023 27 104 1.6 9.7 0.00 0.00 0.00 51 1013.2
20260905205515 27 86 1.6 9.7 0.00 0.00 0.00 51 1013.2
20260905205016 26 94 3.2 9.7 0.00 0.00 0.00 52 1013.2
20260905204515 26 87 1.6 6.4 0.00 0.00 0.00 52 1013.3
20260905204014 26 99 1.6 6.4 0.00 0.00 0.00 52 1013.5
20260905203515 26 101 1.6 9.7 0.00 0.00 0.00 53 1013.6
20260905203014 26 75 3.2 11.3 0.00 0.00 0.00 52 1013.6
20260905202615 26 76 1.6 8.0 0.00 0.00 0.00 53 1013.8
20260905202019 26 113 1.6 8.0 0.00 0.00 0.00 53 1013.9
20260905201515 26 93 3.2 8.0 0.00 0.00 0.00 53 1013.9
20260905201014 26 86 0.0 3.2 0.00 0.00 0.00 55 1014.1
20260905200514 26 83 0.0 4.8 0.00 0.00 0.00 55 1014.1
20260905200021 25 54 0.0 4.8 0.00 0.00 0.00 55 1014.0
20260905195513 25 108 1.6 4.8 0.00 0.00 0.00 55 1014.0
20260905195014 25 95 0.0 4.8 0.00 0.00 0.00 55 1014.0
20260905194514 25 103 1.6 4.8 0.00 0.00 0.00 55 1014.0
20260905194013 25 94 1.6 4.8 0.00 0.00 0.00 54 1014.0
20260905193513 25 98 1.6 4.8 0.00 0.00 0.00 55 1014.1
20260905193013 25 229 1.6 6.4 0.00 0.00 0.00 55 1014.2
20260905192613 25 96 1.6 9.7 0.00 0.00 0.00 55 1014.3
20260905192014 25 108 3.2 9.7 0.00 0.00 0.00 55 1014.2
20260905191513 25 84 0.0 11.3 0.00 0.00 0.00 55 1014.2
20260905191013 25 94 4.8 11.3 0.00 0.00 0.00 54 1014.2
20260905190614 25 115 4.8 9.7 0.00 0.00 0.00 54 1014.3
20260905190018 25 103 3.2 8.0 0.00 0.00 0.00 52 1014.2
20260905185512 25 95 0.0 9.7 0.00 0.00 0.00 52 1014.3
20260905185014 25 86 0.0 12.9 0.00 0.00 0.00 51 1014.5
20260905184518 26 91 1.6 12.9 0.00 0.00 0.00 50 1014.2
20260905184111 26 36 6.4 14.5 0.00 0.00 0.00 49 1013.9
20260905183510 26 84 6.4 17.7 0.00 0.00 0.00 49 1013.9
20260905183011 26 95 6.4 17.7 0.00 0.00 0.00 49 1013.9
20260905182612 27 89 3.2 8.0 0.00 0.00 0.00 52 1014.2
20260905182113 27 91 3.2 8.0 0.00 0.00 0.00 52 1014.2
20260905181010 29 77 3.2 22.5 0.00 0.00 0.00 46 1013.9
20260905180508 30 122 12.9 32.2 0.00 0.00 0.00 42 1014.2
20260905180008 31 136 12.9 32.2 0.00 0.00 0.00 39 1014.3
20260905175508 32 147 6.4 19.3 0.00 0.00 0.00 39 1014.3
20260905174518 34 142 6.4 12.9 0.00 0.00 0.00 37 1014.4
20260905174009 33 115 4.8 16.1 0.00 0.00 0.00 39 1014.2
20260905173509 33 96 6.4 16.1 0.00 0.00 0.00 37 1014.3
20260905173006 33 139 6.4 16.1 0.00 0.00 0.00 39 1014.5
20260905172506 34 166 8.0 19.3 0.00 0.00 0.00 36 1014.5
20260905172006 33 102 9.7 19.3 0.00 0.00 0.00 37 1014.6
20260905171505 33 65 8.0 16.1 0.00 0.00 0.00 36 1014.7
20260905171006 33 161 8.0 16.1 0.00 0.00 0.00 37 1014.7
20260905170505 33 123 4.8 17.7 0.00 0.00 0.00 37 1014.7
20260905170005 34 242 6.4 16.1 0.00 0.00 0.00 37 1014.6
20260905165605 33 96 1.6 11.3 0.00 0.00 0.00 38 1014.7
20260905165005 33 97 4.8 11.3 0.00 0.00 0.00 38 1014.7
20260905164503 33 90 4.8 14.5 0.00 0.00 0.00 39 1014.8
20260905164003 33 102 6.4 17.7 0.00 0.00 0.00 39 1014.8
20260905163503 33 127 6.4 17.7 0.00 0.00 0.00 39 1014.9
20260905163002 33 83 3.2 8.0 0.00 0.00 0.00 41 1014.9
20260905162504 33 69 3.2 12.9 0.00 0.00 0.00 41 1015.0
20260905162003 33 80 4.8 12.9 0.00 0.00 0.00 41 1015.2
20260905161504 33 121 3.2 12.9 0.00 0.00 0.00 41 1015.4
20260905161001 33 169 4.8 12.9 0.00 0.00 0.00 41 1015.4
20260905160503 33 95 3.2 11.3 0.00 0.00 0.00 41 1015.5
20260905160002 33 106 1.6 4.8 0.00 0.00 0.00 42 1015.6
20260905155603 33 98 1.6 9.7 0.00 0.00 0.00 42 1015.6
20260905155000 33 117 4.8 11.3 0.00 0.00 0.00 42 1015.6
20260905154501 33 161 3.2 11.3 0.00 0.00 0.00 42 1015.6
20260905154002 33 139 1.6 8.0 0.00 0.00 0.00 43 1015.5
20260905153504 33 85 1.6 8.0 0.00 0.00 0.00 42 1015.5
20260905153101 33 116 1.6 4.8 0.00 0.00 0.00 41 1015.4
20260905152600 32 77 0.0 11.3 0.00 0.00 0.00 44 1015.5
20260905152059 32 73 6.4 11.3 0.00 0.00 0.00 42 1015.5
20260905151559 33 44 1.6 4.8 0.00 0.00 0.00 44 1015.4
20260905151059 33 77 1.6 4.8 0.00 0.00 0.00 46 1015.4
20260905150556 32 61 1.6 4.8 0.00 0.00 0.00 46 1015.4
20260905150105 32 61 0.0 4.8 0.00 0.00 0.00 45 1015.3
20260905145555 31 78 0.0 6.4 0.00 0.00 0.00 46 1015.4
20260905145055 31 75 0.0 6.4 0.00 0.00 0.00 46 1015.4
20260905144554 31 160 1.6 6.4 0.00 0.00 0.00 45 1015.5
20260905144052 31 51 1.6 3.2 0.00 0.00 0.00 42 1015.5
20260905143651 31 98 0.0 4.8 0.00 0.00 0.00 43 1015.6
20260905143101 30 103 0.0 4.8 0.00 0.00 0.00 41 1015.6
20260905142549 30 77 0.0 3.2 0.00 0.00 0.00 36 1015.7
20260905142049 30 84 0.0 3.2 0.00 0.00 0.00 37 1015.7
20260905141548 30 78 1.6 4.8 0.00 0.00 0.00 36 1015.7
20260905141147 29 102 0.0 4.8 0.00 0.00 0.00 37 1015.6
20260905140548 28 102 1.6 3.2 0.00 0.00 0.00 37 1015.7
20260905140045 28 105 0.0 3.2 0.00 0.00 0.00 37 1015.6
20260905135545 28 104 0.0 4.8 0.00 0.00 0.00 37 1015.6
20260905135046 28 105 1.6 4.8 0.00 0.00 0.00 37 1015.6
20260905134043 28 56 0.0 1.6 0.00 0.00 0.00 39 1015.6
20260905133541 28 90 0.0 3.2 0.00 0.00 0.00 39 1015.7
20260905133041 28 67 0.0 4.8 0.00 0.00 0.00 39 1015.8
20260905132539 28 70 0.0 3.2 0.00 0.00 0.00 39 1015.9
20260905131539 27 89 0.0 3.2 0.00 0.00 0.00 43 1015.9
20260905131036 26 119 0.0 3.2 0.00 0.00 0.00 44 1016.0
20260905130539 26 109 1.6 3.2 0.00 0.00 0.00 42 1016.1
20260905130034 26 122 0.0 1.6 0.00 0.00 0.00 44 1016.1
20260905125535 26 122 0.0 0.0 0.00 0.00 0.00 45 1016.2
20260905125033 25 129 0.0 0.0 0.00 0.00 0.00 45 1016.1
20260905124533 25 129 0.0 1.6 0.00 0.00 0.00 47 1016.2
20260905124033 25 129 0.0 1.6 0.00 0.00 0.00 47 1016.2
20260905123529 24 114 0.0 0.0 0.00 0.00 0.00 47 1016.0
20260905123037 23 114 0.0 0.0 0.00 0.00 0.00 50 1016.1
20260905122528 23 114 0.0 0.0 0.00 0.00 0.00 51 1016.0
20260905122030 23 114 0.0 0.0 0.00 0.00 0.00 51 1016.0
20260905121535 23 114 0.0 0.0 0.00 0.00 0.00 50 1016.0
20260905121027 22 114 0.0 0.0 0.00 0.00 0.00 52 1016.0
20260905120527 22 115 0.0 0.0 0.00 0.00 0.00 53 1016.0
20260905120029 22 115 0.0 0.0 0.00 0.00 0.00 53 1015.9
20260905115526 22 94 0.0 0.0 0.00 0.00 0.00 54 1015.8
20260905115026 21 94 0.0 0.0 0.00 0.00 0.00 54 1016.0
20260905114527 21 94 0.0 0.0 0.00 0.00 0.00 54 1015.8
20260905114027 21 94 0.0 0.0 0.00 0.00 0.00 54 1015.8
20260905113526 21 94 0.0 0.0 0.00 0.00 0.00 54 1015.7
20260905113026 21 94 0.0 0.0 0.00 0.00 0.00 54 1015.6
20260905112526 21 94 0.0 0.0 0.00 0.00 0.00 54 1015.4
20260905112035 21 94 0.0 0.0 0.00 0.00 0.00 54 1015.5
20260905111527 21 95 0.0 0.0 0.00 0.00 0.00 54 1015.4
20260905111027 21 94 0.0 0.0 0.00 0.00 0.00 54 1015.4
20260905110526 21 94 0.0 1.6 0.00 0.00 0.00 54 1015.2
20260905110026 21 94 0.0 1.6 0.00 0.00 0.00 54 1015.2
20260905105526 21 94 0.0 0.0 0.00 0.00 0.00 54 1015.1
20260905105029 21 94 0.0 1.6 0.00 0.00 0.00 54 1015.0
20260905104524 21 94 0.0 0.0 0.00 0.00 0.00 54 1014.9
20260905104024 21 94 0.0 1.6 0.00 0.00 0.00 54 1014.9
20260905103524 21 94 0.0 1.6 0.00 0.00 0.00 54 1014.9
20260905103126 21 94 0.0 1.6 0.00 0.00 0.00 54 1014.9
20260905102522 21 94 0.0 1.6 0.00 0.00 0.00 54 1014.8
20260905102022 21 94 0.0 1.6 0.00 0.00 0.00 54 1014.8
20260905101522 21 94 0.0 1.6 0.00 0.00 0.00 54 1014.8
20260905101022 21 94 0.0 0.0 0.00 0.00 0.00 54 1014.8
20260905100622 21 94 0.0 0.0 0.00 0.00 0.00 54 1014.8
20260905100023 21 94 0.0 0.0 0.00 0.00 0.00 54 1014.7
20260905095523 21 94 0.0 0.0 0.00 0.00 0.00 54 1014.8
20260905095021 21 94 0.0 0.0 0.00 0.00 0.00 54 1014.9
20260905094532 21 94 0.0 0.0 0.00 0.00 0.00 54 1014.7
20260905093519 21 94 0.0 0.0 0.00 0.00 0.00 54 1014.7
20260905093019 21 94 0.0 0.0 0.00 0.00 0.00 54 1014.8
20260905092519 21 94 0.0 0.0 0.00 0.00 0.00 54 1014.8
20260905092028 21 94 0.0 0.0 0.00 0.00 0.00 54 1014.8
20260905091021 21 94 0.0 0.0 0.00 0.00 0.00 54 1014.7
20260905090522 21 94 0.0 0.0 0.00 0.00 0.00 54 1014.8
20260905090020 21 94 0.0 0.0 0.00 0.00 0.00 54 1014.7
20260905085520 21 94 0.0 1.6 0.00 0.00 0.00 54 1014.8
20260905085022 21 94 0.0 1.6 0.00 0.00 0.00 54 1014.9
20260905084519 21 94 0.0 0.0 0.00 0.00 0.00 54 1014.9
20260905084020 21 94 0.0 0.0 0.00 0.00 0.00 54 1015.0
20260905083516 21 94 0.0 1.6 0.00 0.00 0.00 54 1015.1
20260905083015 21 94 0.0 1.6 0.00 0.00 0.00 54 1015.2
20260905082515 22 91 0.0 0.0 0.00 0.00 0.00 54 1015.3
20260905082014 22 91 0.0 0.0 0.00 0.00 0.00 54 1015.2
20260905081514 22 91 0.0 0.0 0.00 0.00 0.00 54 1015.2
20260905081013 22 91 0.0 1.6 0.00 0.00 0.00 53 1015.3
20260905080515 22 91 0.0 1.6 0.00 0.00 0.00 53 1015.4
20260905080013 22 91 0.0 1.6 0.00 0.00 0.00 54 1015.4
20260905075514 22 91 0.0 1.6 0.00 0.00 0.00 54 1015.5
20260905075013 22 91 0.0 1.6 0.00 0.00 0.00 54 1015.5
20260905074512 22 91 0.0 0.0 0.00 0.00 0.00 54 1015.4
20260905074010 22 91 0.0 0.0 0.00 0.00 0.00 54 1015.6
20260905073511 22 91 0.0 0.0 0.00 0.00 0.00 53 1015.6
20260905073010 22 91 0.0 1.6 0.00 0.00 0.00 53 1015.6
20260905072513 22 91 0.0 1.6 0.00 0.00 0.00 53 1015.6
20260905072008 22 91 0.0 0.0 0.00 0.00 0.00 53 1015.6
20260905071508 22 91 0.0 0.0 0.00 0.00 0.00 53 1015.6
20260905071107 22 91 0.0 0.0 0.00 0.00 0.00 53 1015.7
20260905070506 22 91 0.0 1.6 0.00 0.00 0.00 53 1015.6
20260905070008 22 91 0.0 0.0 0.00 0.00 0.00 53 1015.8
20260905065504 22 91 0.0 1.6 0.00 0.00 0.00 53 1015.9
20260905065007 22 91 0.0 1.6 0.00 0.00 0.00 53 1015.9
20260905064505 22 91 0.0 1.6 0.00 0.00 0.00 53 1015.9
20260905064004 22 91 0.0 3.2 0.00 0.00 0.00 53 1016.0
20260905063503 22 91 0.0 1.6 0.00 0.00 0.00 53 1016.0
20260905063005 22 91 0.0 1.6 0.00 0.00 0.00 53 1016.0
20260905062605 22 91 0.0 1.6 0.00 0.00 0.00 53 1016.0
20260905062002 22 90 0.0 1.6 0.00 0.00 0.00 52 1016.0
20260905061502 22 90 0.0 1.6 0.00 0.00 0.00 52 1016.1
20260905061002 22 90 0.0 1.6 0.00 0.00 0.00 52 1016.2
20260905060502 22 90 0.0 1.6 0.00 0.00 0.00 52 1016.3
20260905060108 22 90 0.0 0.0 0.00 0.00 0.00 52 1016.4
20260905055558 22 90 0.0 0.0 0.00 0.00 0.00 52 1016.5
20260905054606 22 90 0.0 1.6 0.00 0.00 0.00 52 1016.6
20260905054102 22 90 0.0 1.6 0.00 0.00 0.00 52 1016.7
20260905053659 22 97 0.0 1.6 0.00 0.00 0.00 52 1016.7
20260905053058 22 106 0.0 1.6 0.00 0.00 0.00 52 1016.8
20260905052600 23 106 0.0 1.6 0.00 0.00 0.00 52 1016.7
20260905052100 23 108 0.0 1.6 0.00 0.00 0.00 52 1016.8
20260905051608 23 108 0.0 0.0 0.00 0.00 0.00 52 1016.7
20260905051156 23 108 0.0 0.0 0.00 0.00 0.00 52 1016.6
20260905050556 23 108 0.0 1.6 0.00 0.00 0.00 51 1016.6
20260905045554 23 108 0.0 0.0 0.00 0.00 0.00 50 1016.7
20260905044053 23 108 0.0 0.0 0.00 0.00 0.00 50 1016.7
20260905043554 23 108 0.0 0.0 0.00 0.00 0.00 50 1016.7
20260905043052 23 116 0.0 0.0 0.00 0.00 0.00 50 1016.7
20260905042555 23 116 0.0 0.0 0.00 0.00 0.00 50 1016.6
20260905041550 23 116 0.0 1.6 0.00 0.00 0.00 50 1016.6
20260905041050 23 116 0.0 1.6 0.00 0.00 0.00 50 1016.5
20260905040549 23 117 0.0 1.6 0.00 0.00 0.00 50 1016.4
20260905040058 23 117 0.0 1.6 0.00 0.00 0.00 50 1016.4
20260905035547 23 118 0.0 1.6 0.00 0.00 0.00 50 1016.4
20260905035048 23 125 0.0 0.0 0.00 0.00 0.00 49 1016.5
20260905034548 23 125 0.0 1.6 0.00 0.00 0.00 48 1016.4
20260905034049 23 125 0.0 1.6 0.00 0.00 0.00 48 1016.5
20260905033547 23 127 0.0 0.0 0.00 0.00 0.00 48 1016.4
20260905033056 23 128 0.0 0.0 0.00 0.00 0.00 46 1016.5
20260905032548 23 129 0.0 1.6 0.00 0.00 0.00 44 1016.4